[[{"header":{"parameterUnit":"m.s-1","parameterCategory":2,"la1":30.2991,"la2":30.254,"lo1":-89.0895,"lo2":-89.0444,"dy":0.0017,"dx":0.0017,"nx":28,"ny":28,"refTime":"2023-08-11T21:00:00:Z","depth":"0","parameterNumber":2,"parameterNumberName":"U-component_of_CURRENTS"},"data":[0,0,0,0,0,0,0,0,0,0,0,0,0,0,0,0,0,0,0,0,0,0,0,0,0,0,0,0,0,0,0,0,0,0,0,0,0,0,0,0,0,0,0,0,0,0,0,0,0,0,0,0,0,0,0,0,0,0,0.4067,0.4067,0,0.4023,0.4021,0.402,0.3821,0.3817,0.3814,0.381,0.3769,0.3771,0.3773,0,0,0,0,0,0,0,0,0,0,0,0,0,0.3852,0.3857,0.4067,0.4067,0.4068,0.4023,0.4021,0.402,0.3822,0.3817,0.3813,0.3809,0.3768,0.3771,0.3773,0,0,0,0,0,0,0,0,0,0,0,0,0,0.3881,0.3859,0.4067,0.3971,0.3963,0.4023,0.4021,0.4019,0.3823,0.3817,0.3812,0.3806,0.3767,0.377,0.3774,0.3907,0,0,0.3785,0.3786,0,0,0,0,0,0,0,0,0.388,0.3888,0.3985,0.3978,0.3969,0.3931,0.3931,0.3986,0.3824,0.3865,0.381,0.3804,0.3834,0.3832,0.3821,0.3905,0.3903,0.3785,0.3787,0.3789,0.379,0,0,0,0,0,0,0,0.3878,0.3888,0.4039,0.3986,0.3976,0.3888,0.3886,0.3939,0.3873,0.3861,0.3849,0.3863,0.3827,0.3818,0.3819,0.3902,0.3785,0.3788,0.379,0.3792,0.4068,0.4073,0,0,0,0,0,0,0.3919,0.3889,0.404,0.4038,0.3922,0.3897,0.3894,0.394,0.3872,0.386,0.3868,0.3854,0.3815,0.3815,0.3817,0.395,0.3789,0.3792,0.3794,0.4063,0.4069,0.4075,0,0,0,0,0,0,0.3916,0.3935,0.4042,0.3967,0.3976,0.3909,0.3961,0.3943,0.393,0.3879,0.3862,0.3873,0.381,0.3812,0.3807,0.3947,0.3793,0.3797,0.4057,0.4065,0.4072,0.4231,0,0,0,0,0,0,0.391,0.3935,0.3987,0.3972,0.3982,0.4103,0.3967,0.3946,0.3952,0.3933,0.3882,0.387,0.3806,0.3801,0.381,0.3949,0.3799,0.405,0.406,0.4069,0.4219,0.4243,0.4264,0,0,0,0,0,0.3903,0.3997,0.3991,0.4009,0.4057,0.4109,0.4106,0.4028,0.3959,0.3988,0.389,0.3871,0.3873,0.3806,0.3816,0.396,0.4045,0.4057,0.4069,0.4209,0.4239,0.4263,0,0,0,0,0,0,0.392,0.3988,0.3978,0.4086,0.4111,0.4079,0.4113,0.4064,0.4017,0.3991,0.3898,0.3883,0.3958,0.3937,0.3865,0.4073,0.3979,0.3993,0.4083,0.4111,0.4133,0.41,0.3802,0,0,0,0,0,0.3965,0.406,0.4087,0.4178,0.4203,0.4168,0.4181,0.4142,0.4102,0.4074,0.4032,0.401,0.4029,0.4034,0.4056,0.4152,0.4098,0.4267,0.429,0.4309,0.4293,0.4331,0.4354,0.4113,0.4113,0.4113,0,0,0.4001,0.4052,0.4104,0.4191,0.42,0.4251,0.4158,0.4212,0.4231,0.4091,0.4106,0.4097,0.4072,0.4154,0.4195,0.414,0.4349,0.4324,0.4339,0.4313,0.4345,0.4368,0.4388,0.4121,0.412,0.4119,0,0,0.4122,0.417,0.4284,0.4308,0.4364,0.4346,0.4375,0.4376,0.4351,0.4383,0.4293,0.4319,0.4362,0.4347,0.4348,0.4523,0.4473,0.4595,0.4674,0.4714,0.4732,0.4747,0.4688,0.4697,0.4599,0.4599,0.46,0,0.4153,0.4291,0.432,0.4405,0.4418,0.4397,0.4465,0.447,0.4458,0.4455,0.4413,0.4461,0.445,0.4515,0.4559,0.4577,0.4548,0.4563,0.4738,0.4752,0.4765,0.4701,0.4708,0.4608,0.4607,0.4606,0.4606,0,0.4347,0.4423,0.4488,0.458,0.4605,0.4673,0.4671,0.4704,0.4682,0.4665,0.4738,0.4705,0.4708,0.4776,0.4704,0.4836,0.4767,0.4763,0.4653,0.4798,0.4722,0.4727,0.4621,0.4618,0.4615,0.4613,0,0,0.447,0.46,0.4611,0.4635,0.4688,0.4716,0.4783,0.4822,0.483,0.4879,0.4893,0.4968,0.494,0.4939,0.4918,0.4955,0.5021,0.4902,0.49,0.4812,0.5041,0.4687,0.4656,0.5055,0.5058,0.506,0.4941,0,0.4594,0.4757,0.4783,0.4867,0.4924,0.4895,0.4929,0.495,0.4957,0.4974,0.4998,0.5016,0.501,0.5009,0.5063,0.5022,0.5046,0.5048,0.4939,0.4933,0.4578,0.4656,0.4438,0.4288,0.4944,0.4945,0.4946,0,0.4762,0.4829,0.4949,0.4959,0.4978,0.5004,0.5008,0.5038,0.5063,0.5065,0.5111,0.5099,0.5147,0.5127,0.5147,0.5149,0.5111,0.5084,0.508,0.4686,0.4588,0.4259,0.427,0.4227,0.4952,0.4951,0.4951,0,0.4817,0.4921,0.5002,0.5014,0.5048,0.5056,0.5053,0.5065,0.5048,0.5104,0.5081,0.517,0.5135,0.5189,0.51,0.5148,0.5071,0.5129,0.4774,0.4746,0.4498,0.4441,0.4419,0.516,0.516,0.5161,0.5161,0,0.4929,0.4978,0.5018,0.5054,0.5068,0.5071,0.5066,0.5088,0.5071,0.5013,0.5103,0.5051,0.5154,0.51,0.5103,0.488,0.507,0.4761,0.4698,0.4541,0.4492,0.4387,0.438,0.5156,0.5157,0.5158,0.5159,0,0.499,0.5041,0.5097,0.5118,0.5102,0.5098,0.5021,0.4995,0.5002,0.4926,0.4929,0.4945,0.484,0.4854,0.4851,0.4768,0.4503,0.4557,0.4291,0.4196,0.3791,0.3799,0.3424,0.336,0.4168,0.4158,0.415,0,0.5051,0.5098,0.5113,0.5073,0.5071,0.5035,0.4974,0.4965,0.4897,0.481,0.4744,0.4649,0.4502,0.4314,0.4184,0.4048,0.4088,0.3758,0.3813,0.3693,0.3666,0.3566,0.3542,0.357,0.3558,0.3548,0.3541,0,0.5095,0.5099,0.5115,0.504,0.4971,0.4901,0.4808,0.4735,0.4663,0.4574,0.4372,0.4258,0.3994,0.3695,0.348,0.3429,0.3539,0.3538,0.3559,0.3269,0.3023,0.2956,0.368,0.3453,0.3462,0.3468,0.3473,0.3476,0.5068,0.5053,0.5021,0.4916,0.4842,0.4689,0.4511,0.4403,0.4232,0.3915,0.4,0.364,0.3396,0.3024,0.2936,0.2664,0.2788,0.2636,0.2676,0.2602,0.2458,0.288,0.2483,0.2486,0.2488,0.2491,0.2493,0,0.493,0.4898,0.4848,0.467,0.4484,0.4515,0.4296,0.4028,0.3689,0.3506,0.3263,0.285,0.2534,0.2364,0.2071,0.1917,0.1945,0.1892,0.1874,0.1925,0.244,0.2337,0.1713,0.1713,0.1713,0.1713,0.1713,0.1713,0.484,0.4712,0.4661,0.4299,0.4165,0.3777,0.3586,0.3274,0.3037,0.2525,0.2177,0.2073,0.1992,0.1731,0.153,0.1503,0.1522,0.1239,0.1407,0.196,0.2041,0.2119,0.2029,0.135,0.135,0.0838,0.0834,0.0831]},{"header":{"parameterUnit":"m.s-1","parameterCategory":2,"la1":30.2991,"la2":30.254,"lo1":-89.0895,"lo2":-89.0444,"dy":0.0017,"dx":0.0017,"nx":28,"ny":28,"refTime":"2023-08-11T21:00:00:Z","depth":"0","parameterNumber":3,"parameterNumberName":"V-component_of_CURRENTS"},"data":[0,0,0,0,0,0,0,0,0,0,0,0,0,0,0,0,0,0,0,0,0,0,0,0,0,0,0,0,0,0,0,0,0,0,0,0,0,0,0,0,0,0,0,0,0,0,0,0,0,0,0,0,0,0,0,0,0,0,0.0635,0.0635,0,0.0635,0.0635,0.0635,0.0592,0.0591,0.059,0.0589,0.0794,0.08,0.0807,0,0,0,0,0,0,0,0,0,0,0,0,0,0.0546,0.0548,0.0635,0.0635,0.0635,0.0635,0.0635,0.0635,0.0592,0.0591,0.0589,0.0588,0.0792,0.08,0.0807,0,0,0,0,0,0,0,0,0,0,0,0,0,0.0569,0.0549,0.0635,0.0614,0.0612,0.0635,0.0635,0.0635,0.0592,0.0591,0.0589,0.0588,0.079,0.0799,0.0809,0.09,0,0,0.0838,0.0842,0,0,0,0,0,0,0,0,0.0568,0.0572,0.0617,0.0615,0.0613,0.0612,0.0679,0.0734,0.0593,0.0599,0.0589,0.0587,0.0754,0.0767,0.0766,0.091,0.0919,0.0839,0.0845,0.0849,0.0852,0,0,0,0,0,0,0,0.0566,0.0571,0.0634,0.0617,0.0615,0.0587,0.0589,0.0688,0.0689,0.0598,0.0595,0.0597,0.0754,0.0757,0.0771,0.0922,0.0839,0.0847,0.0853,0.0857,0.124,0.1244,0,0,0,0,0,0,0.0573,0.0571,0.0634,0.0634,0.0587,0.059,0.0592,0.0614,0.0683,0.0691,0.0599,0.0595,0.0741,0.076,0.0779,0.0955,0.0849,0.0858,0.0864,0.1236,0.1241,0.1246,0,0,0,0,0,0,0.0571,0.0579,0.0634,0.0601,0.0606,0.0594,0.0618,0.0615,0.0618,0.0681,0.0692,0.0606,0.074,0.0765,0.085,0.096,0.0862,0.0871,0.1231,0.1237,0.1243,0.1268,0,0,0,0,0,0,0.0569,0.0579,0.0594,0.0603,0.0609,0.0652,0.062,0.0616,0.0622,0.0618,0.0693,0.0708,0.0741,0.0835,0.0859,0.0972,0.0879,0.1225,0.1234,0.1241,0.1262,0.1275,0.1286,0,0,0,0,0,0.0566,0.0592,0.0596,0.0603,0.0632,0.0653,0.0654,0.0638,0.0624,0.0634,0.0668,0.0706,0.0907,0.0844,0.0872,0.0991,0.1221,0.1231,0.1241,0.1256,0.1272,0.1285,0,0,0,0,0,0,0.056,0.0591,0.0594,0.0629,0.0643,0.0646,0.0649,0.0649,0.068,0.0678,0.073,0.075,0.0873,0.093,0.0859,0.113,0.1087,0.1103,0.109,0.1105,0.1117,0.1144,0.0887,0,0,0,0,0,0.057,0.0602,0.062,0.0651,0.0654,0.0657,0.0663,0.0659,0.0686,0.0694,0.0748,0.0835,0.0941,0.1009,0.109,0.1232,0.122,0.1341,0.1352,0.1362,0.1408,0.1446,0.1463,0.1278,0.1278,0.1278,0,0,0.0577,0.0599,0.0616,0.0652,0.0655,0.0697,0.0656,0.067,0.0734,0.0724,0.0819,0.0864,0.0979,0.1116,0.1186,0.1178,0.1396,0.1374,0.1381,0.1423,0.1457,0.1475,0.149,0.1285,0.1283,0.1282,0,0,0.0609,0.0624,0.0659,0.0677,0.0695,0.0716,0.0727,0.0744,0.0773,0.0859,0.0884,0.0986,0.1128,0.1239,0.1318,0.1463,0.1437,0.1503,0.1613,0.1648,0.1662,0.1674,0.1604,0.161,0.1533,0.1533,0.1533,0,0.0601,0.0675,0.067,0.0707,0.0747,0.0736,0.0796,0.0833,0.0883,0.0952,0.0901,0.114,0.1211,0.1438,0.1475,0.1498,0.1451,0.1533,0.1657,0.167,0.1682,0.1608,0.1615,0.1535,0.1535,0.1535,0.1534,0,0.0675,0.0723,0.0742,0.081,0.0848,0.0891,0.0946,0.1004,0.1039,0.1092,0.1266,0.133,0.1487,0.1537,0.1549,0.1727,0.1634,0.1633,0.1599,0.1701,0.1617,0.1623,0.1538,0.1538,0.1537,0.1536,0,0,0.0669,0.0776,0.0783,0.0844,0.0912,0.0958,0.1081,0.1213,0.1324,0.1375,0.1533,0.1697,0.1705,0.1798,0.1835,0.188,0.1886,0.1792,0.1792,0.1685,0.186,0.1755,0.1749,0.1869,0.1873,0.1875,0.1733,0,0.0726,0.084,0.0892,0.1019,0.1079,0.1143,0.1271,0.1386,0.1477,0.1612,0.1717,0.1855,0.1819,0.1881,0.1928,0.1907,0.1918,0.192,0.1814,0.1811,0.1677,0.1763,0.1699,0.1566,0.1738,0.1739,0.174,0,0.0772,0.0858,0.0986,0.1155,0.1191,0.1274,0.1489,0.1599,0.1784,0.1852,0.1993,0.2035,0.2165,0.2081,0.2099,0.2078,0.1988,0.1937,0.193,0.1847,0.1724,0.1517,0.1571,0.1617,0.1749,0.1748,0.1748,0,0.077,0.0925,0.1048,0.1093,0.127,0.137,0.1483,0.1671,0.1793,0.1991,0.2066,0.2211,0.2254,0.2217,0.2111,0.2093,0.2048,0.2015,0.1835,0.182,0.1767,0.1744,0.1842,0.2025,0.2026,0.2026,0.2026,0,0.0806,0.0899,0.1054,0.111,0.1283,0.1395,0.159,0.1723,0.1914,0.2055,0.2169,0.2274,0.2281,0.2256,0.2149,0.1996,0.2075,0.1876,0.1815,0.1765,0.1745,0.1784,0.1808,0.202,0.2022,0.2023,0.2024,0,0.0775,0.0867,0.1002,0.1202,0.1266,0.1381,0.1606,0.1752,0.1912,0.2087,0.2143,0.2299,0.2259,0.2208,0.2127,0.2021,0.1892,0.1826,0.1714,0.1646,0.153,0.1556,0.154,0.1596,0.1618,0.1615,0.1613,0,0.0789,0.0845,0.1031,0.1107,0.1195,0.1372,0.1502,0.1717,0.1857,0.2086,0.2163,0.2213,0.2235,0.2074,0.1919,0.1718,0.1767,0.1539,0.1555,0.155,0.1534,0.1534,0.1587,0.1442,0.1439,0.1436,0.1434,0,0.082,0.0859,0.0974,0.1111,0.1238,0.14,0.1589,0.1682,0.1918,0.203,0.216,0.2193,0.2076,0.1899,0.1666,0.154,0.1574,0.1469,0.1542,0.1494,0.143,0.1442,0.1437,0.1407,0.141,0.1412,0.1413,0.1414,0.0841,0.091,0.1032,0.1161,0.1292,0.1433,0.1517,0.1683,0.1838,0.1976,0.2056,0.2044,0.1916,0.1603,0.1471,0.1279,0.1346,0.1237,0.1277,0.1284,0.1354,0.1245,0.1115,0.1116,0.1116,0.1117,0.1118,0,0.0903,0.098,0.1093,0.1246,0.1354,0.1429,0.1592,0.1632,0.1723,0.1831,0.1881,0.1776,0.1588,0.1446,0.1202,0.1126,0.1148,0.1133,0.1185,0.1261,0.1221,0.1237,0.1036,0.1036,0.1036,0.1036,0.1036,0.1036,0.095,0.1058,0.1112,0.1284,0.1368,0.1449,0.1497,0.1518,0.157,0.1565,0.1536,0.1571,0.1603,0.1293,0.1163,0.113,0.1244,0.112,0.1265,0.1287,0.1303,0.1318,0.1346,0.1171,0.1171,0.1303,0.1304,0.1305]}],[{"header":{"parameterUnit":"m.s-1","parameterCategory":2,"la1":30.2991,"la2":30.254,"lo1":-89.0895,"lo2":-89.0444,"dy":0.0017,"dx":0.0017,"nx":28,"ny":28,"refTime":"2023-08-11T21:00:00:Z","depth":"2","parameterNumber":2,"parameterNumberName":"U-component_of_CURRENTS"},"data":[0,0,0,0,0,0,0,0,0,0,0,0,0,0,0,0,0,0,0,0,0,0,0,0,0,0,0,0,0,0,0,0,0,0,0,0,0,0,0,0,0,0,0,0,0,0,0,0,0,0,0,0,0,0,0,0,0,0,0.242,0.2422,0,0.2656,0.2659,0.2663,0.2612,0.2607,0.2601,0.2596,0.2626,0.2631,0.2637,0,0,0,0,0,0,0,0,0,0,0,0,0,0.2333,0.2334,0.242,0.2422,0.2424,0.2655,0.2659,0.2664,0.2613,0.2606,0.26,0.2594,0.2624,0.2631,0.2638,0,0,0,0,0,0,0,0,0,0,0,0,0,0.2459,0.2334,0.2419,0.2419,0.242,0.2654,0.266,0.2665,0.2614,0.2606,0.2598,0.2591,0.2622,0.263,0.2639,0.2852,0,0,0.2665,0.2669,0,0,0,0,0,0,0,0,0.2451,0.2463,0.2417,0.2419,0.2421,0.2587,0.264,0.2714,0.2616,0.2551,0.2596,0.2587,0.2593,0.2604,0.2683,0.2853,0.2855,0.2666,0.2671,0.2675,0.2677,0,0,0,0,0,0,0,0.2442,0.2455,0.2523,0.242,0.2422,0.2546,0.2552,0.2657,0.2618,0.2556,0.2551,0.2564,0.2593,0.2676,0.2683,0.2855,0.2665,0.2673,0.2678,0.2682,0.3104,0.311,0,0,0,0,0,0,0.2381,0.2445,0.2516,0.2529,0.2406,0.2552,0.256,0.255,0.2621,0.2623,0.257,0.256,0.2665,0.2673,0.2683,0.2899,0.2675,0.2683,0.2688,0.3098,0.3106,0.3112,0,0,0,0,0,0,0.2378,0.2384,0.2506,0.2486,0.2508,0.2557,0.2551,0.2559,0.2576,0.2632,0.263,0.2567,0.2659,0.2671,0.2664,0.2899,0.2687,0.2694,0.3091,0.3101,0.3109,0.3355,0,0,0,0,0,0,0.2374,0.2382,0.2393,0.2481,0.2507,0.2527,0.2558,0.2569,0.2595,0.2583,0.2632,0.263,0.2653,0.265,0.2672,0.2907,0.2701,0.3084,0.3095,0.3106,0.3339,0.3371,0.3399,0,0,0,0,0,0.237,0.2354,0.2391,0.2402,0.2506,0.2523,0.2547,0.2568,0.2601,0.2567,0.2599,0.2625,0.2744,0.2658,0.2684,0.2927,0.3078,0.3092,0.3105,0.3326,0.3365,0.3398,0,0,0,0,0,0,0.2327,0.2351,0.2391,0.2388,0.2414,0.2506,0.2526,0.2564,0.2592,0.2606,0.2638,0.2638,0.2764,0.2772,0.2677,0.308,0.2948,0.2967,0.3108,0.3145,0.3174,0.3151,0.2708,0,0,0,0,0,0.2333,0.2326,0.2364,0.2375,0.2381,0.2475,0.2509,0.2531,0.2563,0.2571,0.2656,0.2756,0.2876,0.2915,0.3009,0.3181,0.3114,0.3373,0.3403,0.3428,0.3426,0.3469,0.3501,0.3157,0.3157,0.3157,0,0,0.2347,0.2348,0.2362,0.2368,0.2424,0.2473,0.2471,0.2506,0.2626,0.258,0.2777,0.2848,0.293,0.3134,0.3204,0.3145,0.349,0.3445,0.3467,0.345,0.3486,0.3519,0.3548,0.3166,0.3165,0.3163,0,0,0.2341,0.2346,0.2342,0.2355,0.2397,0.2466,0.2453,0.2572,0.2674,0.285,0.2893,0.3028,0.3242,0.3355,0.3437,0.3678,0.3635,0.3775,0.3932,0.3977,0.4004,0.4027,0.3963,0.3979,0.3804,0.3805,0.3805,0,0.2382,0.2369,0.2345,0.2347,0.2398,0.2448,0.2498,0.2639,0.2774,0.2916,0.2914,0.3311,0.3382,0.3627,0.3742,0.3763,0.3708,0.3792,0.4012,0.4034,0.4053,0.3982,0.3996,0.3818,0.3816,0.3815,0.3814,0,0.237,0.2388,0.238,0.2425,0.2455,0.2499,0.2642,0.2788,0.2978,0.316,0.3463,0.358,0.379,0.3923,0.3925,0.4174,0.4061,0.403,0.391,0.4102,0.4015,0.4025,0.3837,0.3832,0.3828,0.3825,0,0,0.2461,0.2395,0.2418,0.2447,0.2514,0.2547,0.2768,0.2991,0.3182,0.3453,0.3716,0.4039,0.4121,0.4209,0.4274,0.436,0.449,0.4277,0.4273,0.4192,0.45,0.4021,0.3983,0.4486,0.449,0.4494,0.4373,0,0.2512,0.2507,0.2485,0.2582,0.261,0.2718,0.2907,0.3129,0.3382,0.3654,0.3912,0.4165,0.4229,0.4345,0.4459,0.4479,0.453,0.4519,0.4343,0.4336,0.3871,0.3986,0.3832,0.3677,0.4382,0.4383,0.4384,0,0.2563,0.255,0.2611,0.2675,0.2704,0.28,0.3093,0.3268,0.363,0.3838,0.4121,0.4271,0.4522,0.4507,0.4648,0.4627,0.4591,0.458,0.4574,0.4039,0.3875,0.3607,0.3666,0.4399,0.4397,0.4396,0.4395,0,0.266,0.2671,0.2727,0.2749,0.2829,0.2958,0.3068,0.3376,0.3578,0.3943,0.41,0.4387,0.4514,0.459,0.4583,0.4645,0.4593,0.4666,0.4184,0.4146,0.393,0.3862,0.4712,0.4712,0.4712,0.4713,0.4713,0,0.2739,0.281,0.2782,0.2829,0.3012,0.3012,0.3269,0.3478,0.3705,0.3913,0.4179,0.4308,0.4541,0.4544,0.4562,0.4322,0.4568,0.4189,0.4093,0.4001,0.3944,0.4506,0.4484,0.4708,0.4709,0.471,0.4711,0,0.2874,0.2841,0.2933,0.2998,0.3068,0.3217,0.3389,0.3543,0.3728,0.3975,0.4083,0.4284,0.4257,0.4305,0.4332,0.4198,0.4079,0.3906,0.3696,0.3573,0.3632,0.3625,0.3468,0.345,0.3435,0.3422,0.3412,0,0.2937,0.2965,0.3095,0.3197,0.3258,0.3421,0.3548,0.3671,0.3774,0.3918,0.4009,0.402,0.3957,0.3704,0.3579,0.339,0.3608,0.3006,0.3111,0.3586,0.3511,0.3528,0.3541,0.2964,0.2951,0.294,0.2932,0,0.3072,0.3124,0.3194,0.3376,0.352,0.3626,0.3748,0.3761,0.3827,0.3856,0.3743,0.3637,0.3434,0.3097,0.2766,0.2681,0.3042,0.2756,0.3381,0.3213,0.3076,0.3013,0.3052,0.2834,0.2844,0.2851,0.2857,0.286,0.3228,0.3286,0.3357,0.3534,0.368,0.3701,0.3603,0.3591,0.3514,0.3316,0.3361,0.3014,0.2943,0.2313,0.2138,0.2026,0.2267,0.2206,0.2259,0.232,0.2193,0.2028,0.1563,0.1566,0.1568,0.1569,0.1571,0,0.332,0.3347,0.3489,0.3573,0.3582,0.3694,0.3621,0.3336,0.2986,0.2926,0.2656,0.2209,0.1874,0.1824,0.1517,0.1355,0.1602,0.1278,0.1689,0.1778,0.186,0.1732,0.0969,0.0967,0.0965,0.0964,0,0,0.3368,0.3409,0.3396,0.3386,0.3407,0.3193,0.3005,0.2666,0.2468,0.2028,0.1794,0.1767,0.1742,0.1361,0.1268,0.1077,0.1458,0.1028,0.1515,0.2095,0.2176,0.2378,0.2268,0,0,0,0,0]},{"header":{"parameterUnit":"m.s-1","parameterCategory":2,"la1":30.2991,"la2":30.254,"lo1":-89.0895,"lo2":-89.0444,"dy":0.0017,"dx":0.0017,"nx":28,"ny":28,"refTime":"2023-08-11T21:00:00:Z","depth":"2","parameterNumber":3,"parameterNumberName":"V-component_of_CURRENTS"},"data":[0,0,0,0,0,0,0,0,0,0,0,0,0,0,0,0,0,0,0,0,0,0,0,0,0,0,0,0,0,0,0,0,0,0,0,0,0,0,0,0,0,0,0,0,0,0,0,0,0,0,0,0,0,0,0,0,0,0,-0.0408,-0.0408,0,-0.0315,-0.0313,-0.031,-0.0165,-0.0164,-0.0162,-0.0161,0.003,0.0034,0.0037,0,0,0,0,0,0,0,0,0,0,0,0,0,-0.0343,-0.0344,-0.0408,-0.0408,-0.0408,-0.0315,-0.0312,-0.031,-0.0166,-0.0164,-0.0162,-0.016,0.0029,0.0033,0.0038,0,0,0,0,0,0,0,0,0,0,0,0,0,-0.0311,-0.0345,-0.0408,-0.0334,-0.0327,-0.0316,-0.0312,-0.0309,-0.0166,-0.0164,-0.0162,-0.016,0.0027,0.0033,0.0038,0.003,0,0,0.0055,0.0058,0,0,0,0,0,0,0,0,-0.0313,-0.0311,-0.0345,-0.0339,-0.0332,-0.0261,-0.022,-0.0195,-0.0166,-0.0213,-0.0161,-0.0159,-0.0068,-0.0055,-0.0025,0.0039,0.0047,0.0056,0.0059,0.0062,0.0063,0,0,0,0,0,0,0,-0.0315,-0.0314,-0.0357,-0.0345,-0.0337,-0.0266,-0.0259,-0.0214,-0.0142,-0.0209,-0.0202,-0.0213,-0.0062,-0.0031,-0.0019,0.005,0.0056,0.0061,0.0064,0.0066,0.0403,0.0408,0,0,0,0,0,0,-0.0362,-0.0318,-0.0361,-0.0356,-0.0331,-0.0271,-0.0262,-0.0275,-0.0144,-0.0127,-0.0215,-0.0207,-0.0041,-0.0026,-0.0012,0.0168,0.0062,0.0067,0.007,0.0397,0.0404,0.041,0,0,0,0,0,0,-0.0361,-0.0367,-0.0365,-0.0344,-0.034,-0.0276,-0.0291,-0.0275,-0.0251,-0.0152,-0.0129,-0.0211,-0.0039,-0.002,0.0067,0.017,0.007,0.0075,0.0391,0.04,0.0407,0.0412,0,0,0,0,0,0,-0.0359,-0.0367,-0.0383,-0.0348,-0.0344,-0.0354,-0.0294,-0.0275,-0.0267,-0.0255,-0.0142,-0.0121,-0.0036,0.0058,0.0072,0.0176,0.0079,0.0384,0.0395,0.0405,0.0405,0.042,0.0432,0,0,0,0,0,-0.0357,-0.038,-0.0385,-0.039,-0.0372,-0.0356,-0.0345,-0.0283,-0.027,-0.0254,-0.0156,-0.0125,0.0139,0.0064,0.008,0.0188,0.0379,0.0392,0.0404,0.0399,0.0417,0.0432,0,0,0,0,0,0,-0.0347,-0.0368,-0.0371,-0.0397,-0.0386,-0.0336,-0.0325,-0.0309,-0.0225,-0.0205,-0.0111,-0.0082,0.0055,0.011,0.0025,0.0331,0.0286,0.0302,0.0278,0.0295,0.0308,0.0356,0.0084,0,0,0,0,0,-0.0368,-0.0394,-0.0396,-0.0417,-0.0419,-0.0386,-0.0376,-0.0342,-0.0279,-0.0241,-0.0161,-0.003,0.0119,0.0186,0.03,0.0408,0.0416,0.0515,0.0529,0.0539,0.0599,0.0682,0.0706,0.0451,0.0451,0.0451,0,0,-0.0371,-0.039,-0.0403,-0.0419,-0.0402,-0.0374,-0.0368,-0.0358,-0.0285,-0.0236,-0.011,-0.0014,0.0154,0.0325,0.0395,0.038,0.0598,0.0555,0.0562,0.0618,0.0697,0.0721,0.0742,0.046,0.0458,0.0457,0,0,-0.0371,-0.0411,-0.0417,-0.0411,-0.0413,-0.0386,-0.0399,-0.0358,-0.0284,-0.018,-0.0078,0.0076,0.024,0.0421,0.0531,0.068,0.0653,0.0718,0.0834,0.0911,0.0931,0.0949,0.0882,0.0895,0.074,0.074,0.074,0,-0.0377,-0.0377,-0.0413,-0.0402,-0.0382,-0.0396,-0.0361,-0.0293,-0.0215,-0.0114,-0.0123,0.0226,0.0329,0.0613,0.0706,0.0715,0.0688,0.0736,0.092,0.0939,0.0958,0.0887,0.09,0.0742,0.0741,0.0741,0.0741,0,-0.0353,-0.0353,-0.0356,-0.0342,-0.0327,-0.031,-0.0248,-0.019,-0.0122,-0.0014,0.0232,0.0382,0.0618,0.0682,0.0753,0.0983,0.0887,0.0896,0.0851,0.0982,0.0899,0.0913,0.0744,0.0743,0.0743,0.0742,0,0,-0.0364,-0.0342,-0.0341,-0.0307,-0.029,-0.0267,-0.0155,-0.0016,0.0111,0.0239,0.0454,0.0736,0.0811,0.0947,0.1036,0.113,0.1199,0.1078,0.1081,0.0963,0.1248,0.1091,0.1088,0.1208,0.1213,0.1218,0.1094,0,-0.0325,-0.0279,-0.0274,-0.0203,-0.0169,-0.0132,-0.0017,0.0111,0.025,0.0446,0.0664,0.0901,0.0915,0.1045,0.1144,0.1237,0.1256,0.1226,0.1189,0.1187,0.0993,0.1111,0.1061,0.0944,0.1107,0.111,0.1111,0,-0.0301,-0.026,-0.0195,-0.01,-0.008,-0.0035,0.0147,0.0256,0.052,0.0657,0.0901,0.1048,0.1313,0.1256,0.1427,0.1392,0.1333,0.1332,0.1327,0.1214,0.1063,0.0873,0.0963,0.1134,0.1132,0.113,0.1129,0,-0.0287,-0.0207,-0.0146,-0.0122,-0.0021,0.0049,0.0124,0.0334,0.0516,0.0803,0.0987,0.1236,0.1424,0.1448,0.1478,0.1462,0.1546,0.1516,0.1278,0.1257,0.124,0.1212,0.1559,0.156,0.156,0.156,0.1561,0,-0.0264,-0.0218,-0.0132,-0.0105,0.0034,0.0077,0.0273,0.0399,0.0663,0.0925,0.1104,0.1334,0.149,0.157,0.1508,0.1437,0.1559,0.1331,0.1266,0.1227,0.1201,0.1419,0.1405,0.1555,0.1556,0.1557,0.1558,0,-0.0293,-0.0246,-0.0166,-0.004,0.0026,0.0111,0.0358,0.0549,0.0741,0.108,0.1205,0.1476,0.1571,0.1588,0.1617,0.1492,0.1421,0.1312,0.1182,0.1108,0.1045,0.1033,0.1088,0.1082,0.1078,0.1074,0.1071,0,-0.0305,-0.0271,-0.0127,-0.001,0.0046,0.0214,0.0388,0.0588,0.0825,0.1161,0.1364,0.1531,0.1641,0.1555,0.1421,0.1226,0.1273,0.0995,0.1012,0.1091,0.1022,0.1017,0.1012,0.093,0.0926,0.0923,0.092,0,-0.0294,-0.0266,-0.0188,0.0054,0.0226,0.0445,0.0693,0.0862,0.1135,0.1336,0.1561,0.1617,0.1569,0.1405,0.1138,0.1007,0.1048,0.0913,0.1122,0.1049,0.0932,0.0866,0.0869,0.089,0.0893,0.0895,0.0897,0.0898,-0.0273,-0.0218,-0.0069,0.0159,0.0406,0.0689,0.0796,0.1044,0.128,0.1515,0.1574,0.1558,0.1465,0.1082,0.0909,0.0738,0.0787,0.0697,0.0714,0.0733,0.073,0.0612,0.0499,0.05,0.0501,0.0501,0.0502,0,-0.0183,-0.0093,0.0094,0.0358,0.065,0.0762,0.1057,0.111,0.1269,0.1425,0.1474,0.1252,0.107,0.0957,0.0652,0.0472,0.0526,0.0423,0.055,0.0577,0.0602,0.06,0.0331,0.0331,0.033,0.033,0,0,-0.0123,0.0045,0.0133,0.0569,0.0779,0.1018,0.113,0.1149,0.1218,0.121,0.1178,0.1189,0.1063,0.0815,0.0637,0.0476,0.056,0.0434,0.0575,0.0769,0.0796,0.0749,0.0773,0,0,0,0,0]}],[{"header":{"parameterUnit":"m.s-1","parameterCategory":2,"la1":30.2991,"la2":30.254,"lo1":-89.0895,"lo2":-89.0444,"dy":0.0017,"dx":0.0017,"nx":28,"ny":28,"refTime":"2023-08-11T21:00:00:Z","depth":"4","parameterNumber":2,"parameterNumberName":"U-component_of_CURRENTS"},"data":[0,0,0,0,0,0,0,0,0,0,0,0,0,0,0,0,0,0,0,0,0,0,0,0,0,0,0,0,0,0,0,0,0,0,0,0,0,0,0,0,0,0,0,0,0,0,0,0,0,0,0,0,0,0,0,0,0,0,0.0252,0.0252,0,0.0226,0.0225,0.0225,0.0394,0.0399,0.0404,0.0409,0.0485,0.0483,0.048,0,0,0,0,0,0,0,0,0,0,0,0,0,0.0361,0.0359,0.0252,0.0252,0.0251,0.0226,0.0225,0.0225,0.0393,0.0399,0.0405,0.0411,0.0486,0.0483,0.048,0,0,0,0,0,0,0,0,0,0,0,0,0,0.0321,0.0358,0.0252,0.0333,0.034,0.0226,0.0225,0.0225,0.0392,0.04,0.0407,0.0414,0.0487,0.0483,0.0479,0.0309,0,0,0.0468,0.0466,0,0,0,0,0,0,0,0,0.0323,0.0317,0.0322,0.0328,0.0335,0.0322,0.0292,0.0258,0.039,0.0371,0.0409,0.0417,0.0435,0.0436,0.0412,0.0313,0.0316,0.0468,0.0465,0.0464,0.0463,0,0,0,0,0,0,0,0.0326,0.0319,0.0241,0.0321,0.0329,0.0341,0.0344,0.0285,0.0363,0.0374,0.0386,0.0382,0.0441,0.0415,0.0415,0.0317,0.0468,0.0464,0.0462,0.046,0.0486,0.0489,0,0,0,0,0,0,0.0327,0.032,0.0241,0.024,0.0348,0.0334,0.0337,0.0318,0.0362,0.0376,0.0376,0.039,0.0418,0.0419,0.0419,0.0569,0.0464,0.046,0.0458,0.0483,0.0486,0.049,0,0,0,0,0,0,0.0329,0.0319,0.0243,0.0282,0.0274,0.0325,0.0301,0.0313,0.0325,0.0363,0.0381,0.0381,0.0424,0.0424,0.0488,0.0561,0.0458,0.0455,0.0479,0.0484,0.0488,0.0645,0,0,0,0,0,0,0.0332,0.0319,0.0305,0.0281,0.0272,0.0216,0.0294,0.0308,0.031,0.0329,0.037,0.0384,0.0429,0.0494,0.0484,0.0554,0.0452,0.0476,0.0481,0.0487,0.0636,0.0654,0.067,0,0,0,0,0,0.0335,0.0301,0.0303,0.0295,0.025,0.0215,0.0211,0.0271,0.0303,0.0307,0.0398,0.0385,0.0524,0.0492,0.048,0.0551,0.0473,0.048,0.0486,0.0629,0.0651,0.067,0,0,0,0,0,0,0.0339,0.0313,0.0317,0.0276,0.0261,0.0246,0.0241,0.0251,0.0304,0.0352,0.039,0.041,0.051,0.0478,0.0442,0.0578,0.0503,0.0507,0.0616,0.0636,0.0652,0.0671,0.0449,0,0,0,0,0,0.032,0.0291,0.0271,0.0232,0.0226,0.0217,0.0206,0.0247,0.0283,0.0313,0.0343,0.041,0.0503,0.0535,0.0578,0.0592,0.0547,0.0639,0.0656,0.0671,0.0681,0.0753,0.0778,0.0511,0.0511,0.0511,0,0,0.0286,0.0285,0.0255,0.023,0.0218,0.0222,0.0232,0.023,0.0279,0.0303,0.0378,0.0448,0.0522,0.0628,0.0663,0.0622,0.07,0.0679,0.0692,0.0693,0.0763,0.0789,0.0812,0.0516,0.0515,0.0514,0,0,0.0237,0.0223,0.0195,0.0197,0.0205,0.0218,0.0216,0.0214,0.0276,0.0331,0.0428,0.0547,0.0582,0.071,0.0771,0.0868,0.0793,0.0874,0.0967,0.1039,0.1061,0.1081,0.0955,0.0963,0.0878,0.0879,0.0879,0,0.0218,0.0192,0.0178,0.0184,0.0213,0.022,0.0239,0.0268,0.0304,0.0379,0.0395,0.0599,0.0643,0.0851,0.0938,0.0911,0.0873,0.0891,0.1062,0.1082,0.1099,0.0966,0.0973,0.0887,0.0886,0.0885,0.0885,0,0.0153,0.0164,0.0152,0.0182,0.0204,0.0217,0.0278,0.0324,0.0393,0.0454,0.0647,0.0746,0.0898,0.0931,0.0977,0.1151,0.1049,0.1081,0.1012,0.1136,0.0985,0.0989,0.0899,0.0896,0.0894,0.0892,0,0,0.0073,0.0104,0.0114,0.0166,0.023,0.0251,0.0349,0.0459,0.0559,0.0649,0.0796,0.1004,0.1078,0.1153,0.1226,0.1284,0.135,0.1247,0.1247,0.1118,0.1374,0.124,0.1228,0.1438,0.1442,0.1445,0.118,0,0.0054,0.0082,0.0119,0.0194,0.0229,0.0323,0.0416,0.0536,0.0651,0.0778,0.0951,0.1102,0.116,0.126,0.136,0.1372,0.1385,0.1409,0.1275,0.1266,0.1138,0.1242,0.1459,0.1182,0.1183,0.1183,0.1184,0,0.0018,0.006,0.0119,0.0265,0.0292,0.036,0.0569,0.0655,0.085,0.0945,0.1152,0.1242,0.1416,0.1417,0.1512,0.1531,0.1476,0.1435,0.1426,0.1261,0.1148,0.1058,0.1189,0.1189,0.1188,0.1188,0.1188,0,0.0004,0.0094,0.0164,0.02,0.0332,0.0438,0.0543,0.073,0.0831,0.1057,0.1122,0.1361,0.1445,0.1505,0.1442,0.1509,0.1414,0.149,0.1279,0.1258,0.138,0.1363,0.1522,0.1522,0.1523,0.1523,0.1524,0,0.0004,0.0063,0.0176,0.0207,0.0357,0.0466,0.0645,0.0773,0.0944,0.1053,0.1227,0.1292,0.1486,0.1454,0.1427,0.1319,0.1408,0.1292,0.1235,0.1431,0.1425,0.1373,0.136,0.1513,0.1515,0.1517,0.1519,0,-0.0024,0.0028,0.0118,0.0272,0.0346,0.0465,0.067,0.0773,0.0925,0.106,0.112,0.1249,0.1252,0.1273,0.1271,0.1248,0.116,0.1066,0.1102,0.1048,0.0945,0.0942,0.0894,0.0888,0.0883,0.0879,0.0876,0,-0.004,-0.0008,0.0146,0.0226,0.0312,0.0491,0.0598,0.0774,0.0837,0.0987,0.0995,0.1056,0.1133,0.0982,0.1021,0.0918,0.0924,0.0809,0.1091,0.0958,0.0906,0.0911,0.0915,0.0868,0.0867,0.0866,0.0864,0,-0.0064,-0.0018,0.0052,0.0199,0.0331,0.0484,0.0623,0.0648,0.0813,0.0898,0.0941,0.0972,0.0929,0.0948,0.0824,0.0761,0.0897,0.0762,0.0777,0.1041,0.0926,0.0881,0.089,0.0848,0.085,0.0852,0.0853,0,-0.0075,-0.0046,0.0038,0.0188,0.0337,0.0469,0.0557,0.0638,0.0728,0.0856,0.082,0.0877,0.0935,0.0841,0.0704,0.0669,0.0752,0.0769,0.0787,0.0805,0.0908,0.0756,0.0586,0,0,0,0,0,-0.0073,-0.0062,0.003,0.017,0.0312,0.0459,0.056,0.0618,0.0689,0.0728,0.0815,0.0788,0.0772,0.0716,0.0678,0.0619,0.0699,0.0559,0.0717,0.0755,0.0774,0.0908,0,0,0,0,0,0,-0.0091,-0.003,-0.0008,0.0148,0.0278,0.0453,0.0573,0.064,0.0644,0.0709,0.0686,0.0745,0.0692,0.0832,0.068,0.0661,0.0742,0.0559,0.0556,0.0744,0.0761,0.0777,0.0922,0,0,0,0,0]},{"header":{"parameterUnit":"m.s-1","parameterCategory":2,"la1":30.2991,"la2":30.254,"lo1":-89.0895,"lo2":-89.0444,"dy":0.0017,"dx":0.0017,"nx":28,"ny":28,"refTime":"2023-08-11T21:00:00:Z","depth":"4","parameterNumber":3,"parameterNumberName":"V-component_of_CURRENTS"},"data":[0,0,0,0,0,0,0,0,0,0,0,0,0,0,0,0,0,0,0,0,0,0,0,0,0,0,0,0,0,0,0,0,0,0,0,0,0,0,0,0,0,0,0,0,0,0,0,0,0,0,0,0,0,0,0,0,0,0,0.0106,0.0106,0,0.0084,0.0083,0.0083,0.0017,0.0016,0.0015,0.0014,-0.0024,-0.0024,-0.0024,0,0,0,0,0,0,0,0,0,0,0,0,0,0.0023,0.0025,0.0106,0.0106,0.0106,0.0084,0.0083,0.0082,0.0018,0.0016,0.0015,0.0014,-0.0024,-0.0024,-0.0024,0,0,0,0,0,0,0,0,0,0,0,0,0,0.0033,0.0026,0.0106,0.0073,0.0071,0.0084,0.0083,0.0082,0.0018,0.0016,0.0015,0.0013,-0.0024,-0.0024,-0.0024,0.0009,0,0,-0.0024,-0.0024,0,0,0,0,0,0,0,0,0.0032,0.0035,0.0078,0.0076,0.0073,0.0055,0.004,0.0058,0.0018,0.0034,0.0014,0.0012,0.0004,0.0002,-0.0004,0.0007,0.0005,-0.0024,-0.0024,-0.0024,-0.0024,0,0,0,0,0,0,0,0.0032,0.0036,0.0093,0.0078,0.0075,0.0037,0.0036,0.0043,0.0026,0.0033,0.0029,0.0032,0.0002,-0.0003,-0.0005,0.0005,-0.0024,-0.0024,-0.0024,-0.0024,-0.0039,-0.004,0,0,0,0,0,0,0.0048,0.0036,0.0094,0.0093,0.0052,0.004,0.004,0.0059,0.0026,0.002,0.0034,0.003,-0.0003,-0.0005,-0.0007,-0.0022,-0.0024,-0.0024,-0.0024,-0.0039,-0.0039,-0.004,0,0,0,0,0,0,0.0046,0.0054,0.0095,0.0065,0.0068,0.0044,0.0066,0.006,0.0061,0.0028,0.0021,0.0043,-0.0004,-0.0007,-0.0047,-0.0022,-0.0024,-0.0024,-0.0038,-0.0039,-0.0039,-0.0019,0,0,0,0,0,0,0.0044,0.0054,0.0077,0.0067,0.0071,0.0112,0.0068,0.0061,0.0067,0.0061,0.0034,0.0027,-0.0006,-0.0048,-0.0048,-0.0022,-0.0024,-0.0038,-0.0039,-0.0039,-0.0019,-0.0018,-0.0018,0,0,0,0,0,0.0042,0.0093,0.0079,0.0086,0.0103,0.0114,0.0112,0.0085,0.007,0.0079,0.0017,0.0028,-0.0051,-0.0049,-0.0048,-0.0022,-0.0037,-0.0038,-0.0039,-0.0019,-0.0019,-0.0018,0,0,0,0,0,0,0.007,0.0091,0.0075,0.0129,0.0122,0.0104,0.0125,0.0103,0.0067,0.0057,0.0013,0.0002,-0.0033,-0.0027,-0.0024,-0.0031,-0.0036,-0.0036,-0.002,-0.002,-0.0019,0.0008,-0.0024,0,0,0,0,0,0.0089,0.0134,0.0126,0.0169,0.0173,0.0151,0.0155,0.0132,0.0101,0.0085,0.0048,0.0011,-0.0031,-0.0029,-0.007,-0.0053,-0.0067,-0.0034,-0.0034,-0.0033,-0.0012,-0.0034,-0.0033,-0.0043,-0.0043,-0.0043,0,0,0.0118,0.0132,0.0159,0.0178,0.0175,0.0164,0.0149,0.0165,0.0137,0.0089,0.0044,0.0001,-0.0038,-0.0064,-0.0069,-0.005,-0.0045,-0.0034,-0.0034,-0.0013,-0.0035,-0.0034,-0.0033,-0.0043,-0.0043,-0.0043,0,0,0.0168,0.0206,0.0235,0.0229,0.0227,0.0207,0.0216,0.019,0.0167,0.0132,0.006,0.0017,-0.0001,-0.0056,-0.0076,-0.0085,-0.0067,-0.0065,-0.0006,-0.0028,-0.0027,-0.0026,-0.007,-0.0073,-0.0034,-0.0034,-0.0034,0,0.0185,0.022,0.0244,0.0244,0.0242,0.0225,0.0222,0.0198,0.0148,0.0125,0.0123,0.0023,-0.0005,-0.0065,-0.0063,-0.0082,-0.0083,-0.0005,-0.0026,-0.0025,-0.0024,-0.0069,-0.0073,-0.0033,-0.0033,-0.0033,-0.0033,0,0.0221,0.0244,0.0269,0.0255,0.0258,0.0269,0.0232,0.0214,0.0196,0.0156,0.01,0.0039,0.0009,-0.0017,-0.0027,-0.0037,-0.004,-0.0048,-0.0022,-0.0022,-0.007,-0.0074,-0.0032,-0.0032,-0.0032,-0.0032,0,0,0.0268,0.0286,0.0293,0.0291,0.0265,0.0279,0.0241,0.0206,0.0191,0.0141,0.0108,0.0046,0.0054,0.0033,0.0003,-0.0011,-0.0017,0.0016,0.0014,-0.002,-0.0058,-0.0037,-0.004,-0.0003,-0.0003,-0.0003,-0.0104,0,0.0276,0.0293,0.0292,0.03,0.0306,0.028,0.0257,0.022,0.0191,0.0149,0.0088,0.0069,0.0065,0.009,0.0066,-0.0011,-0.0019,0.0011,-0.0059,-0.0062,-0.0036,-0.0041,-0.0003,-0.0107,-0.0108,-0.0108,-0.0109,0,0.029,0.0307,0.0333,0.0335,0.0339,0.0361,0.0346,0.0324,0.0252,0.0235,0.0202,0.0154,0.0117,0.0131,0.0037,0.0075,0.0047,-0.0022,-0.0027,-0.0007,-0.0046,-0.0102,-0.0116,-0.0116,-0.0115,-0.0115,-0.0114,0,0.0317,0.0329,0.0368,0.0368,0.0369,0.0411,0.0431,0.0385,0.037,0.0343,0.0313,0.0245,0.0242,0.0175,0.0098,0.0094,-0.0026,-0.0065,-0.01,-0.0102,-0.01,-0.01,-0.0109,-0.0109,-0.0108,-0.0108,-0.0108,0,0.0311,0.034,0.0423,0.0449,0.0525,0.0517,0.0588,0.0568,0.0533,0.0484,0.0429,0.0334,0.0275,0.0181,0.0103,0.0005,-0.0001,-0.0087,-0.0115,-0.0095,-0.0093,-0.0105,-0.0104,-0.0112,-0.0111,-0.011,-0.011,0,0.0316,0.0354,0.0425,0.0506,0.0555,0.0642,0.0728,0.0725,0.0712,0.0641,0.0647,0.0455,0.0326,0.0224,0.0088,0.0033,-0.0084,-0.0106,-0.0077,-0.0103,-0.0164,-0.016,-0.0198,-0.0197,-0.0197,-0.0197,-0.0197,0,0.0306,0.0355,0.0511,0.0596,0.0669,0.0802,0.0848,0.0856,0.0785,0.0652,0.0537,0.0446,0.0317,0.0133,0.0021,-0.0101,-0.0108,-0.0133,-0.0148,-0.0143,-0.0168,-0.0164,-0.0161,-0.0197,-0.0197,-0.0197,-0.0197,0,0.0305,0.04,0.047,0.0656,0.0777,0.086,0.0901,0.0854,0.0772,0.0739,0.0516,0.0416,0.0241,0.0089,0.0073,-0.0055,-0.0107,-0.0133,-0.0135,-0.0151,-0.0143,-0.0167,-0.0164,-0.0196,-0.0196,-0.0196,-0.0196,0,0.0341,0.0387,0.0522,0.0669,0.0816,0.0857,0.0903,0.0811,0.0772,0.0572,0.0484,0.0328,0.0247,0.0102,0.0007,-0.0018,-0.0074,-0.0074,-0.0081,-0.0083,-0.0006,0.0023,0.0005,0,0,0,0,0,0.0367,0.0386,0.0505,0.0634,0.0777,0.0864,0.0854,0.0837,0.0711,0.0586,0.0562,0.0398,0.0262,0.0108,0.0087,-0.0043,-0.0098,-0.0076,-0.0103,-0.0194,-0.0194,-0.012,0,0,0,0,0,0,0.0361,0.0469,0.0468,0.0584,0.0668,0.0779,0.0802,0.0741,0.0625,0.0523,0.0427,0.04,0.023,0.031,0.0091,0.0059,0.004,-0.0156,-0.0157,-0.0193,-0.0194,-0.0194,-0.0118,0,0,0,0,0]}]]